GFSNIL_sfc_30mbdewp_000.txt.gz
Dewpoint
36 36 34 32 33 32 32 34 37 36 35 36 36 37 37 37 36 36 36 36 36 36
38 36 34 33 32 32 34 34 35 36 34 31 32 32 33 35 35 34 34 33 32 33
36 35 33 32 32 33 34 36 33 31 30 31 32 35 35 34 34 33 31 30 27 24
34 32 32 32 33 34 34 32 31 30 31 33 35 37 36 33 31 26 25 24 23 22
33 32 32 33 34 34 34 34 33 35 36 36 36 32 30 28 25 22 20 21 21 19
34 34 34 35 35 36 36 36 37 36 35 34 32 30 26 22 21 21 22 20 19 18
34 36 36 37 34 33 31 30 29 27 26 26 24 22 20 19 20 19 18 19 20 19
29 29 27 26 26 24 23 19 18 17 18 18 18 16 22 18 19 19 19 20 20 19
26 24 22 21 20 17 16 16 17 17 17 18 17 25 26 25 21 19 18 17 17 18
26 21 19 17 14 15 16 17 17 17 19 19 19 22 22 22 19 17 17 18 17 16
22 19 16 15 15 15 16 16 17 18 18 18 17 20 21 20 18 18 18 18 17 16
21 20 15 15 15 16 17 17 17 18 18 18 18 20 19 19 18 18 18 17 17 18
22 18 15 16 17 18 17 17 19 21 21 20 19 19 18 18 18 19 20 21 21 22
22 17 17 17 18 19 18 20 24 25 23 22 20 17 18 18 20 21 21 19 20 21

GFSNIL_sfc_30mbdewp_003.txt.gz
Dewpoint
36 35 34 34 33 32 31 32 32 33 35 34 34 36 36 36 37 36 36 35 35 35
35 34 34 33 32 32 32 31 31 32 32 34 33 35 36 36 36 36 36 35 34 34
34 34 32 31 31 31 31 32 33 34 34 34 36 36 35 35 35 35 33 32 29 28
33 32 31 30 31 33 35 34 36 37 37 37 36 36 36 33 32 33 33 30 29 26
30 31 30 31 33 33 34 35 36 36 36 36 37 36 34 33 28 26 25 26 25 25
29 29 31 31 31 31 30 30 29 29 29 27 27 25 22 22 24 24 23 22 21 20
28 28 27 27 26 24 23 21 18 17 17 17 17 16 17 17 18 17 16 17 18 18
26 25 23 22 22 20 18 16 15 15 16 16 16 18 22 21 20 19 18 18 17 18
25 25 22 20 18 15 14 14 16 16 16 16 16 24 24 23 19 17 16 16 16 16
24 26 21 19 14 13 14 15 16 16 16 17 18 22 22 22 19 18 16 16 17 17
26 25 22 18 15 14 15 15 16 16 18 19 18 23 22 20 18 16 16 16 17 17
26 28 22 17 15 15 15 16 16 17 19 21 21 21 23 19 17 18 17 17 17 20
24 25 23 17 15 15 15 16 20 22 22 22 21 24 19 20 19 19 19 20 18 20
25 23 19 15 15 15 16 19 25 27 25 22 23 20 19 20 19 20 22 20 21 22

GFSNIL_sfc_30mbdewp_006.txt.gz
Dewpoint
40 38 38 38 35 35 35 36 35 38 38 38 38 39 39 38 38 38 39 37 37 36
38 38 37 35 36 35 37 35 36 38 38 37 38 38 37 37 36 37 37 37 38 36
36 36 36 35 35 36 36 35 36 37 38 37 37 37 36 37 36 35 35 36 36 37
35 34 34 34 35 35 34 34 34 34 34 35 35 37 37 36 35 32 30 31 31 31
33 32 32 33 31 31 31 33 32 31 30 31 31 33 32 34 33 31 30 28 27 27
31 30 30 29 29 29 29 29 26 23 22 21 21 21 20 20 23 23 21 21 22 22
31 28 27 28 26 25 25 22 20 20 20 21 20 19 22 22 23 22 21 21 20 21
30 27 27 27 25 24 22 20 19 19 20 21 20 22 23 23 21 21 20 20 19 19
30 27 27 27 25 22 20 19 20 20 20 20 19 24 24 24 22 21 20 19 18 19
35 33 32 28 24 21 19 20 21 21 21 21 23 24 25 23 21 20 18 18 18 18
33 32 29 28 27 23 20 20 20 22 22 22 22 23 24 24 21 19 18 19 18 18
33 28 29 28 27 22 19 20 22 24 25 25 24 24 28 26 22 21 19 19 20 21
26 27 28 28 25 20 20 21 26 27 26 26 24 26 24 23 22 20 20 21 20 19
30 27 24 23 19 20 20 23 26 26 26 25 24 23 21 23 22 21 21 19 19 21

GFSNIL_sfc_30mbdewp_009.txt.gz
Dewpoint
38 38 38 35 35 37 37 36 37 39 38 38 38 38 37 37 37 37 37 37 36 37
37 38 36 35 37 36 36 35 36 37 36 36 37 37 37 36 36 36 36 35 37 37
37 36 36 35 34 34 34 33 33 32 33 34 35 36 37 36 35 34 34 33 33 33
35 33 34 34 32 32 31 31 32 33 33 32 32 32 33 33 34 33 32 31 29 26
34 31 31 30 31 30 29 31 31 29 23 23 22 22 23 26 27 24 22 22 22 22
34 30 29 27 29 28 26 25 22 21 21 21 22 22 23 23 24 23 22 22 21 20
38 34 29 30 28 25 24 21 21 20 20 21 22 23 22 22 22 21 21 22 22 21
36 34 35 33 30 29 24 22 20 19 21 22 23 23 24 23 22 21 21 21 20 18
36 35 35 35 34 28 22 20 19 21 22 23 23 26 25 24 22 21 20 18 17 18
36 35 35 36 33 27 24 21 21 23 22 23 24 26 26 25 23 21 19 18 18 18
33 33 35 35 29 26 24 21 23 24 25 25 24 25 28 28 26 22 21 20 19 19
30 32 33 35 31 27 24 23 25 26 25 24 25 26 25 26 23 22 22 21 21 19
32 31 32 32 29 24 21 26 26 25 25 26 24 22 21 25 24 21 20 20 19 19
29 29 28 25 20 20 25 25 23 22 21 22 21 20 22 20 20 19 20 18 19 20

GFSNIL_sfc_30mbdewp_012.txt.gz
Dewpoint
37 38 37 36 38 37 36 36 38 37 35 34 35 36 36 36 35 35 35 34 33 34
38 38 36 37 36 35 35 35 33 33 33 33 35 36 36 35 33 34 33 33 34 33
36 37 36 35 34 34 33 32 32 31 32 33 33 34 34 33 33 33 33 33 29 26
35 34 35 34 33 33 32 31 31 32 31 26 26 25 26 28 31 26 23 23 23 22
36 34 32 34 34 32 31 31 29 28 23 22 21 23 23 24 24 23 22 22 22 21
35 36 32 31 30 30 30 31 33 24 20 20 22 23 24 23 23 22 22 21 21 21
33 37 33 33 32 33 34 35 34 22 20 22 24 24 22 22 22 22 21 22 21 20
35 35 35 35 35 34 35 36 26 21 21 24 24 23 23 23 22 21 21 21 20 18
35 35 35 36 36 36 36 24 24 23 24 23 23 26 25 25 23 22 21 20 19 19
35 33 34 36 36 36 31 29 23 24 24 24 24 26 27 27 25 24 22 21 20 19
31 31 33 34 34 34 34 25 24 25 24 22 24 27 27 26 25 23 22 22 21 19
31 31 31 31 32 32 28 25 26 24 24 24 23 21 24 25 22 21 20 20 19 19
30 31 30 30 31 24 24 26 24 22 23 21 19 19 20 18 22 19 19 18 18 18
27 25 25 22 21 24 25 23 20 18 21 20 19 18 17 16 18 19 19 17 17 19

GFSNIL_sfc_30mbdewp_015.txt.gz
Dewpoint
37 38 37 36 37 38 37 36 37 35 33 33 34 35 35 35 33 33 33 30 32 32
37 38 37 37 37 37 36 36 36 35 34 34 34 35 35 34 33 33 33 32 33 32
37 37 37 37 36 35 35 35 33 33 33 32 32 32 32 30 29 31 32 31 24 23
38 36 35 35 35 34 33 33 33 33 32 30 25 25 24 24 27 27 23 23 22 22
33 34 35 33 34 33 32 33 30 32 32 27 24 23 23 22 25 23 21 22 22 21
32 33 34 33 31 32 31 30 33 34 33 26 23 23 24 24 23 21 22 22 21 21
32 32 32 33 32 32 32 34 34 35 30 24 24 24 22 22 22 22 22 22 22 21
34 35 35 35 35 35 34 35 37 28 28 25 25 23 23 23 23 23 22 23 22 21
33 34 34 35 36 36 36 34 29 31 25 23 23 25 26 29 27 25 24 23 21 21
31 33 31 33 35 34 34 35 30 24 24 22 23 27 28 28 26 24 23 21 20 19
30 30 31 31 32 33 33 32 25 24 24 24 25 23 24 25 22 20 20 18 19 18
30 31 31 30 30 31 30 25 25 24 23 20 18 20 20 20 22 20 18 19 18 18
30 28 26 26 28 24 25 25 23 20 22 20 18 18 18 17 18 17 18 18 17 18
26 25 25 23 22 24 25 22 19 18 20 19 18 17 17 17 17 18 19 18 17 19

GFSNIL_sfc_30mbdewp_018.txt.gz
Dewpoint
36 37 37 37 36 37 37 38 37 35 33 32 33 34 34 34 33 33 32 31 30 31
37 37 38 38 37 37 37 37 36 35 32 32 33 32 34 34 33 32 31 31 31 32
38 36 35 35 35 35 35 35 34 32 33 33 33 33 32 31 29 28 29 31 26 23
30 32 33 33 33 34 34 33 32 33 33 33 31 28 26 25 24 26 26 23 23 22
30 32 33 32 32 33 33 33 33 32 32 33 32 27 23 23 25 24 22 21 22 21
29 31 30 30 30 31 32 32 31 33 34 34 30 24 25 24 23 21 22 22 22 21
29 31 32 32 33 33 34 33 34 34 35 28 25 25 23 22 22 23 23 23 23 23
31 33 35 35 34 35 35 35 36 34 30 26 24 23 23 25 26 25 24 24 24 23
31 31 33 33 32 34 34 34 35 28 24 23 23 27 28 29 27 25 23 21 20 19
30 30 31 31 32 32 32 33 30 24 23 23 26 25 24 26 23 20 19 18 17 17
29 29 30 31 30 30 31 31 26 23 24 23 20 20 21 21 22 20 19 18 18 17
29 29 30 27 26 27 29 25 24 24 21 17 17 19 19 19 18 19 18 18 18 17
29 28 26 25 24 26 25 25 23 21 20 20 17 18 18 18 17 16 18 19 18 17
28 26 25 23 22 22 25 23 20 20 20 18 17 17 18 19 18 18 20 18 17 18

GFSNIL_sfc_30mbdewp_021.txt.gz
Dewpoint
39 39 39 39 39 38 38 38 39 39 35 33 34 34 34 34 33 33 31 30 28 27
40 39 36 35 37 37 37 36 38 38 35 35 34 33 33 32 33 32 30 29 29 28
34 33 33 34 31 32 33 34 36 37 35 35 34 34 32 31 30 29 27 27 29 26
29 31 33 32 31 30 32 31 34 35 35 34 34 33 33 29 27 26 26 27 25 24
30 31 31 30 31 32 32 33 34 34 34 33 34 34 30 26 26 25 25 23 23 23
27 30 31 32 32 33 33 34 35 33 33 35 36 28 26 26 24 23 23 24 23 22
28 31 33 34 34 34 34 35 35 36 36 33 28 26 24 23 24 25 25 25 24 22
28 33 34 34 34 33 34 35 35 34 31 29 26 23 26 27 26 24 22 19 17 16
29 32 32 32 33 33 33 33 34 31 26 25 25 28 27 26 21 19 16 15 14 14
30 31 31 31 31 31 30 32 33 27 24 25 23 22 23 22 20 17 16 15 14 14
30 30 30 30 30 28 28 31 31 26 24 22 18 20 20 20 17 17 15 15 15 15
29 29 29 28 27 26 28 28 26 25 22 18 17 19 19 18 19 18 17 16 16 15
28 28 28 27 26 25 24 25 25 22 20 19 18 18 18 19 20 19 17 17 14 15
27 28 27 26 25 24 24 25 24 23 21 19 19 18 18 19 19 18 17 14 12 14

GFSNIL_sfc_30mbdewp_024.txt.gz
Dewpoint
33 30 30 29 26 24 25 24 26 27 30 34 36 35 33 32 32 31 29 26 24 23
33 27 24 25 26 23 23 23 23 27 30 33 34 34 33 31 32 31 30 25 24 23
25 24 25 25 23 23 24 25 25 26 27 30 31 32 32 30 30 29 27 22 24 24
23 24 25 24 23 25 27 26 26 28 29 29 29 30 31 32 31 28 24 24 25 24
23 23 23 23 25 27 28 27 27 29 29 29 30 34 36 31 25 24 24 24 24 23
22 23 23 24 27 28 28 27 28 29 29 29 32 33 31 28 26 25 25 25 24 22
23 24 25 27 29 29 28 28 28 29 29 30 30 30 27 25 27 26 24 23 22 19
24 25 26 30 30 28 28 28 28 29 30 30 29 27 28 26 24 22 20 18 15 14
24 25 26 29 28 26 27 27 27 28 30 28 24 26 26 23 20 20 16 14 13 14
24 24 25 25 25 25 26 28 27 29 29 26 26 22 22 21 18 17 15 14 14 14
23 24 24 24 24 26 26 26 26 27 26 26 22 21 20 20 18 18 17 16 16 15
25 25 23 22 24 26 26 25 26 26 26 25 22 19 19 19 19 20 19 17 16 14
24 23 22 23 26 26 26 24 24 24 25 22 22 19 19 19 21 21 19 17 15 12
23 24 24 26 26 26 25 25 26 26 25 23 22 22 18 19 21 21 19 17 16 13

GFSNIL_sfc_30mbdewp_027.txt.gz
Dewpoint
32 32 29 27 26 26 25 23 25 25 26 27 30 30 34 35 33 33 34 34 32 29
32 27 24 26 28 24 24 23 22 26 25 25 26 29 33 33 33 32 32 34 33 29
28 26 25 27 26 24 25 26 26 26 26 27 27 27 27 29 31 30 32 32 29 26
28 26 26 26 25 24 26 27 26 25 26 26 25 26 30 34 34 33 32 27 26 28
26 24 25 25 23 25 27 28 27 25 25 25 25 27 32 30 33 32 29 27 26 25
24 24 25 25 24 26 27 27 26 25 25 25 26 26 28 30 29 28 27 27 26 24
22 24 26 24 24 25 27 27 26 25 25 26 27 26 26 26 28 28 26 25 22 18
23 26 25 23 25 27 28 26 26 25 24 27 27 26 28 26 24 23 22 20 16 15
24 25 22 22 26 27 24 24 25 25 25 28 26 25 24 23 22 20 17 16 15 15
24 23 21 22 22 22 23 25 25 25 26 28 27 23 22 22 19 19 18 17 16 16
20 19 21 21 21 21 23 24 24 24 27 27 26 23 21 21 20 19 19 19 18 16
18 21 22 20 20 21 23 24 25 24 26 27 26 22 20 19 20 20 20 19 17 17
21 21 20 21 21 23 24 24 23 23 25 25 25 22 20 19 21 22 21 19 17 16
20 20 22 22 23 24 24 25 26 28 27 26 26 25 21 20 20 22 21 19 17 17

GFSNIL_sfc_30mbdewp_030.txt.gz
Dewpoint
38 36 34 33 29 29 28 27 28 29 30 30 30 31 33 36 37 37 36 35 36 36
34 31 29 28 30 31 27 26 30 30 30 30 31 31 32 33 36 36 36 35 35 36
33 30 29 30 30 28 27 28 29 29 29 29 30 30 30 35 36 35 36 36 35 33
31 31 29 31 30 28 28 28 29 29 27 27 28 29 30 31 30 32 34 34 34 34
32 31 31 29 29 28 28 29 29 29 27 27 28 29 29 31 31 31 31 30 30 28
32 32 27 29 28 27 28 30 30 28 28 28 28 28 29 29 29 30 30 29 27 26
32 29 28 28 27 27 28 29 29 28 28 29 28 28 28 27 28 29 26 26 26 21
30 26 28 28 27 28 30 29 28 27 29 28 28 27 28 26 24 25 23 23 20 18
30 27 27 26 26 28 29 28 27 28 27 28 27 26 24 22 22 22 22 20 19 18
25 25 25 23 23 24 25 27 27 28 28 28 27 26 24 21 20 21 23 20 20 19
24 22 21 23 25 25 25 26 28 27 28 29 27 26 23 21 20 22 22 22 21 19
20 21 22 24 24 24 24 26 27 27 26 27 26 25 23 20 21 23 23 22 22 20
23 23 25 24 24 26 26 26 27 28 27 26 28 25 23 21 22 23 24 23 21 18
28 29 25 25 25 26 27 28 28 29 28 29 28 25 24 22 21 22 23 22 21 21

GFSNIL_sfc_30mbdewp_033.txt.gz
Dewpoint
37 37 36 34 31 30 29 29 30 30 29 29 30 31 30 32 34 37 37 36 36 36
36 34 32 31 31 31 28 29 29 29 28 29 29 30 29 34 34 33 35 36 35 35
31 30 30 31 30 29 28 28 29 29 29 28 28 30 32 33 31 32 34 35 34 34
31 30 30 30 31 30 29 29 28 30 29 27 27 29 30 30 30 31 33 33 33 32
32 31 30 30 33 31 29 30 30 30 28 27 28 30 30 30 30 29 31 30 29 27
31 30 31 31 32 30 29 30 31 30 28 28 28 29 29 29 29 30 30 29 27 27
32 33 31 33 29 27 29 30 30 28 28 28 30 29 28 28 28 26 25 25 24 24
34 33 33 30 29 29 31 30 29 28 27 30 30 29 28 26 25 24 23 22 22 19
33 32 30 29 25 26 27 29 30 28 29 28 28 28 26 23 22 22 21 21 21 20
35 32 26 26 26 26 25 26 28 28 29 29 28 27 24 22 21 20 21 22 21 20
26 25 27 27 26 27 29 29 28 28 29 30 28 27 26 22 20 21 22 23 22 21
28 28 27 29 30 31 30 27 27 29 28 28 27 28 26 21 21 22 23 23 23 22
30 30 29 30 31 30 27 26 28 28 28 27 27 28 26 22 21 22 23 23 22 19
33 31 31 30 28 26 26 27 27 29 28 29 27 27 27 25 22 22 22 23 22 21

GFSNIL_sfc_30mbdewp_036.txt.gz
Dewpoint
41 40 38 37 34 34 31 30 31 31 30 30 30 29 30 33 36 35 34 34 34 35
38 37 36 35 35 33 32 31 31 30 29 30 29 29 31 34 33 33 35 34 34 34
35 35 34 33 32 29 30 31 30 29 29 29 27 29 31 33 31 32 33 34 33 33
31 31 32 31 32 31 30 30 30 31 30 28 27 28 32 31 31 31 31 33 33 32
32 34 32 31 33 31 32 33 33 31 30 28 27 29 29 30 30 29 29 30 29 28
31 30 30 32 33 34 33 32 31 31 28 28 28 29 30 30 30 30 30 30 28 27
31 31 32 35 34 31 31 31 31 29 29 29 29 31 30 29 29 29 27 25 23 22
35 35 36 33 31 31 31 30 30 29 29 30 30 30 30 29 28 25 24 23 22 20
36 34 32 31 29 29 29 28 29 29 29 29 30 29 30 28 25 23 22 20 22 21
34 34 32 30 29 29 29 30 30 29 29 29 31 29 29 26 23 22 21 20 22 21
31 30 31 30 30 32 32 29 29 29 28 29 31 30 29 25 22 21 21 22 23 21
31 31 31 32 33 32 30 30 28 28 28 29 30 30 29 25 21 20 22 23 23 23
33 35 34 33 32 31 31 27 27 28 28 28 28 29 29 27 22 22 22 23 23 22
37 36 34 31 30 28 27 28 28 27 28 28 28 28 29 29 23 22 22 22 22 22

GFSNIL_sfc_30mbdewp_039.txt.gz
Dewpoint
50 48 47 45 42 37 33 32 32 33 32 33 31 30 30 32 35 35 34 33 34 33
45 43 44 41 39 36 33 32 32 33 32 30 30 29 30 33 33 32 34 33 32 33
44 43 42 39 35 33 32 32 33 31 30 30 30 29 31 33 33 33 33 33 32 33
40 39 38 36 33 31 33 32 31 31 31 31 30 29 30 33 31 31 31 33 33 32
38 38 36 34 32 33 32 32 32 34 33 31 28 28 30 31 30 30 29 30 31 30
36 34 33 34 35 33 33 34 34 33 31 30 28 28 30 30 30 30 30 30 30 28
36 34 35 35 35 34 33 33 32 32 31 30 29 29 30 30 30 30 30 30 28 24
36 36 37 35 33 34 34 33 32 31 31 30 31 29 31 30 30 29 28 25 24 22
38 37 34 33 33 32 31 31 34 35 33 30 31 30 30 30 29 28 26 24 22 21
36 35 33 32 32 31 33 35 36 35 31 29 29 29 30 31 28 26 24 22 20 21
33 32 32 32 34 34 37 36 33 29 28 28 28 30 31 31 26 23 22 21 22 22
34 34 35 35 37 38 35 31 29 28 27 28 27 29 30 30 24 22 22 22 23 23
36 38 38 37 34 33 31 30 28 27 28 28 28 28 30 30 25 22 22 23 23 25
39 38 36 33 31 30 29 28 28 28 27 27 28 28 29 31 27 25 24 25 24 23

GFSNIL_sfc_30mbdewp_042.txt.gz
Dewpoint
53 52 49 48 46 41 37 34 33 33 34 35 36 37 31 31 33 35 35 34 34 33
53 52 50 48 45 40 36 35 34 35 36 40 37 31 31 32 34 34 33 33 32 31
52 51 49 47 43 39 37 34 35 35 41 36 32 32 31 32 33 32 33 33 32 32
49 47 47 45 44 40 36 34 34 38 35 33 32 31 30 31 32 32 32 33 32 32
47 46 44 43 39 36 34 35 34 33 33 32 31 33 30 30 32 31 31 31 32 31
44 43 40 37 36 35 34 34 36 34 34 35 36 31 29 30 31 31 31 30 30 29
40 38 38 37 35 36 36 34 34 36 35 33 31 32 31 30 30 30 30 30 30 30
39 38 38 36 36 36 35 34 34 35 37 38 36 33 33 32 31 30 30 30 30 28
39 37 36 35 33 33 36 37 38 38 38 37 37 36 32 30 30 30 29 28 27 24
37 35 35 34 34 35 36 39 39 38 38 36 33 30 29 30 31 29 28 27 25 23
35 33 33 35 37 38 39 38 38 36 32 30 29 29 29 29 31 28 27 25 23 22
34 35 36 37 39 39 38 36 34 31 28 27 28 28 28 30 29 26 25 23 23 22
38 38 39 38 37 35 33 31 31 29 28 28 28 28 28 30 29 26 25 24 23 25
39 38 38 36 33 31 29 29 28 28 28 27 27 27 28 30 30 27 26 25 25 25

GFSNIL_sfc_30mbdewp_045.txt.gz
Dewpoint
55 53 52 51 50 47 45 44 42 39 36 36 37 37 41 39 35 34 35 36 36 35
55 55 52 51 50 48 46 42 40 37 36 39 38 42 38 34 34 36 36 37 37 35
56 55 54 53 51 48 45 41 39 37 39 40 42 38 35 34 35 35 35 35 35 34
56 55 54 52 51 47 44 40 37 37 41 41 37 35 33 34 35 34 34 34 34 33
55 53 53 51 50 47 43 39 39 39 39 37 36 33 36 36 33 32 32 33 33 33
51 50 49 49 46 43 41 39 38 37 36 36 35 38 36 37 34 32 33 33 33 32
48 48 47 44 42 41 39 37 37 38 38 37 35 38 36 33 32 32 32 32 32 32
44 42 41 39 38 38 37 37 36 36 38 39 39 38 37 36 35 35 33 32 33 32
39 38 37 36 36 37 38 37 38 38 39 39 39 39 38 37 35 31 30 30 31 31
37 35 35 36 37 37 38 40 40 40 40 39 39 38 35 32 30 31 30 31 30 30
35 34 35 37 39 39 39 39 39 39 38 38 35 32 30 30 30 30 30 30 30 29
35 36 38 38 39 40 39 39 38 37 34 32 30 29 29 29 30 29 29 28 28 27
37 38 38 39 38 37 35 33 32 30 31 31 30 30 29 29 31 30 29 29 27 26
39 38 37 35 33 31 30 30 31 30 30 29 29 29 29 29 30 30 30 29 28 28

GFSNIL_sfc_30mbdewp_048.txt.gz
Dewpoint
58 58 57 56 55 54 51 49 48 47 46 44 41 40 40 40 42 38 36 33 32 30
58 58 57 56 55 52 50 49 49 46 45 41 38 39 42 42 39 36 36 36 35 35
57 57 57 57 53 52 51 50 48 45 43 40 40 41 42 38 38 39 38 38 38 34
57 57 57 56 55 54 53 51 46 45 42 40 41 41 38 39 39 37 38 38 36 33
57 57 56 56 56 55 51 48 45 43 41 43 40 39 39 39 38 38 37 37 34 32
55 55 54 53 51 49 48 45 41 42 42 39 39 38 40 39 40 40 39 36 34 31
52 51 50 49 47 45 44 42 41 40 40 40 40 39 39 41 40 39 37 34 33 32
48 47 46 46 45 43 40 39 39 40 39 40 40 40 40 39 39 38 39 36 35 32
44 43 42 40 39 39 38 38 38 38 39 40 40 40 39 39 39 38 36 31 29 29
39 38 38 37 37 37 39 41 41 41 41 41 41 40 39 39 35 31 29 29 28 26
37 37 37 37 39 40 40 40 40 39 40 39 38 37 34 31 29 29 28 28 27 26
37 37 38 38 39 40 40 39 39 37 35 33 32 31 30 30 29 29 28 27 26 26
38 38 38 39 39 37 36 32 31 29 30 30 30 30 31 30 28 28 28 28 26 27
38 36 35 34 32 30 29 29 30 30 29 28 28 28 29 30 30 29 30 28 27 27

GFSNIL_sfc_30mbdewp_051.txt.gz
Dewpoint
56 56 56 56 55 55 55 55 54 52 50 49 49 48 46 43 44 43 42 39 38 39
58 58 59 59 58 57 58 54 52 51 50 49 48 45 44 44 43 39 41 41 41 39
57 60 59 59 58 58 56 53 51 51 50 48 44 45 44 42 41 40 41 41 39 40
58 58 59 58 58 57 55 54 52 51 49 46 46 43 41 41 41 40 41 40 40 39
58 58 58 58 57 57 56 53 51 48 47 45 43 43 41 40 40 39 39 40 40 40
57 56 56 54 53 52 51 49 47 46 44 44 43 41 40 41 40 41 41 40 40 40
54 53 53 52 50 48 46 43 43 43 42 41 40 40 40 40 41 41 41 41 40 39
51 50 49 48 47 46 43 42 41 41 41 41 41 41 41 41 41 40 40 40 40 40
48 47 45 44 44 43 42 41 40 40 40 40 39 40 40 40 40 39 39 38 39 37
42 42 40 39 39 39 39 40 40 40 41 41 41 40 40 39 39 36 34 31 30 29
40 39 39 39 40 40 40 40 41 40 40 40 38 39 39 36 31 29 28 28 28 27
39 39 39 39 39 40 40 39 39 38 36 34 33 36 31 30 29 29 28 27 27 26
39 38 39 40 39 38 38 34 31 29 29 29 28 30 31 30 29 29 29 29 28 28
39 39 38 36 35 32 30 28 30 29 29 28 28 30 30 30 28 29 28 28 29 30

GFSNIL_sfc_30mbdewp_054.txt.gz
Dewpoint
56 57 56 55 53 56 56 56 57 57 56 54 53 52 50 49 45 45 46 46 41 40
58 59 59 59 57 56 57 57 57 57 53 52 51 51 47 46 46 46 44 43 41 41
58 58 58 56 59 59 58 56 54 53 52 51 51 47 46 46 43 42 43 43 41 41
57 57 58 60 59 60 57 56 54 53 52 51 47 46 44 43 42 41 42 41 40 41
58 59 59 59 59 58 56 55 54 52 49 47 46 43 42 42 42 41 40 40 40 41
59 58 56 55 54 53 52 49 48 47 46 44 44 42 42 41 40 40 39 40 41 40
55 54 53 51 50 48 47 46 46 45 44 43 42 42 41 40 39 40 41 41 41 40
52 51 50 48 46 45 44 44 43 42 42 41 41 41 40 40 41 41 41 41 41 41
50 50 49 47 45 43 42 42 42 41 41 41 40 40 40 41 41 40 39 39 39 40
47 45 44 44 42 41 42 42 41 41 41 41 41 40 40 40 39 39 39 38 37 33
43 41 41 41 41 41 41 41 41 41 40 40 40 40 39 39 38 32 31 31 31 30
40 41 41 40 40 41 40 40 40 39 39 38 37 39 36 31 32 31 31 31 31 31
40 40 41 40 40 40 40 38 35 32 31 28 32 31 30 30 31 30 27 27 27 27
40 40 40 39 38 38 32 33 31 30 31 31 29 28 25 24 23 21 21 22 22 22

GFSNIL_sfc_30mbdewp_057.txt.gz
Dewpoint
56 56 55 54 54 55 56 57 58 58 57 56 55 54 53 52 51 48 45 46 45 43
56 55 57 56 56 57 58 57 57 58 57 56 55 53 52 49 47 47 46 43 43 43
57 57 58 58 57 58 57 56 56 56 55 54 52 50 48 47 46 45 44 43 43 43
58 59 59 58 57 56 56 55 55 54 53 51 50 48 47 45 44 43 43 43 42 42
58 58 58 58 57 59 57 56 55 53 52 49 47 45 44 43 42 42 42 41 41 40
57 58 58 57 56 55 53 52 51 50 48 46 45 44 43 43 42 42 40 40 40 41
56 55 53 51 51 50 49 48 47 46 45 44 43 43 42 42 41 40 40 41 41 41
52 51 49 48 47 46 46 46 45 44 43 43 42 42 41 41 40 40 40 41 41 41
50 49 47 46 45 44 43 43 42 42 41 41 40 40 40 40 40 41 40 40 39 39
49 47 46 44 43 42 41 41 40 40 40 40 40 40 40 41 40 39 38 38 38 38
45 45 43 42 42 41 41 40 40 41 41 40 40 40 40 39 38 37 32 32 31 30
42 41 41 41 41 41 41 41 40 40 40 39 39 39 38 34 31 30 28 26 26 26
41 41 41 41 40 40 39 39 39 37 35 34 31 29 31 28 25 21 20 22 23 22
41 40 40 40 39 39 37 31 31 31 31 29 26 26 25 23 20 20 20 20 20 21

GFSNIL_sfc_30mbdewp_060.txt.gz
Dewpoint
53 54 55 53 50 50 52 54 56 57 57 57 57 56 56 54 53 51 50 49 47 45
52 54 55 56 54 53 55 56 57 57 57 57 56 57 55 53 50 49 48 47 45 45
54 55 56 57 55 55 57 57 57 57 57 57 57 55 53 50 48 47 46 45 44 44
55 56 58 58 58 58 57 56 55 56 56 55 54 51 49 48 46 46 44 44 43 43
57 58 58 58 58 58 56 55 55 55 54 52 50 48 47 46 45 44 43 43 43 42
58 58 58 58 58 58 56 55 54 53 52 50 48 46 45 44 44 43 43 42 42 41
57 57 58 57 56 55 54 53 51 50 48 46 44 44 43 43 43 42 42 41 41 41
57 56 54 52 51 50 49 48 47 46 45 44 43 43 43 42 41 40 40 40 41 41
52 51 50 48 48 47 46 45 44 44 43 43 42 42 41 41 40 39 40 40 40 39
50 48 47 46 45 44 43 43 43 42 42 41 41 40 40 39 40 40 39 37 35 31
48 46 45 44 43 43 42 41 40 40 39 39 39 40 40 39 37 33 31 30 28 26
46 44 43 42 41 40 39 39 39 40 39 39 39 39 37 34 31 28 25 24 24 22
44 43 41 40 40 40 40 40 40 39 38 38 36 34 32 29 25 22 20 21 20 21
41 41 41 40 40 40 38 36 34 32 29 28 28 27 25 22 20 19 18 17 19 21

GFSNIL_sfc_30mbdewp_063.txt.gz
Dewpoint
48 49 49 50 48 49 50 50 52 54 56 57 57 57 56 56 55 54 52 51 49 48
48 50 49 51 54 53 52 52 53 54 56 56 56 56 56 57 56 53 52 50 50 49
48 49 52 53 54 55 54 55 55 56 56 56 57 57 57 57 53 51 49 48 48 46
47 49 51 54 55 56 56 57 57 56 57 57 57 56 54 52 50 49 47 46 45 44
51 53 54 55 56 57 57 57 57 56 56 55 54 53 52 49 48 47 45 45 44 44
56 57 57 57 57 58 58 56 56 56 54 53 51 50 48 47 46 45 45 44 44 43
56 57 56 57 57 58 57 56 55 54 53 51 48 47 46 45 44 44 43 43 42 42
56 56 57 57 57 55 55 54 53 50 48 47 46 45 44 44 43 42 42 41 41 41
55 56 56 55 52 51 50 48 47 47 46 45 44 43 43 42 42 41 40 40 41 37
56 53 52 50 49 47 46 46 45 44 44 43 43 42 41 41 40 40 40 38 35 30
52 50 49 48 46 45 44 43 43 43 42 42 41 40 39 39 37 34 31 30 28 27
49 47 46 45 44 43 42 42 41 41 40 40 38 38 37 34 30 26 25 24 22 20
47 46 44 43 42 41 41 40 40 38 39 38 37 36 33 30 25 23 21 19 20 22
45 43 42 41 40 40 39 36 34 32 32 32 31 29 28 25 23 21 18 16 17 19

GFSNIL_sfc_30mbdewp_069.txt.gz
Dewpoint
51 50 50 51 49 49 49 49 50 52 52 53 54 55 55 56 56 56 56 56 56 54
50 50 50 50 51 51 50 51 51 51 52 53 54 54 55 55 55 56 56 57 56 55
51 50 51 51 50 50 51 51 50 51 51 51 52 54 54 55 56 56 56 56 54 54
51 51 50 50 50 51 51 52 52 51 51 51 52 53 54 55 56 56 56 55 54 53
51 51 50 50 50 51 51 52 52 52 52 52 53 55 55 55 55 55 54 53 52 52
51 51 50 51 51 52 52 52 54 54 53 53 53 54 56 55 55 54 53 53 50 48
51 51 51 51 51 51 51 52 52 52 54 54 54 54 55 55 54 52 51 50 48 46
51 51 50 50 50 50 50 51 52 53 55 56 56 54 54 52 51 49 46 46 45 45
50 51 50 50 50 50 51 52 54 56 56 53 53 52 51 50 48 46 44 42 41 41
51 51 52 51 51 51 53 54 55 55 54 52 51 48 47 47 46 43 42 39 37 34
52 52 52 53 53 54 55 55 54 52 51 48 45 45 44 43 42 40 37 35 33 31
53 53 54 54 54 50 50 49 47 46 44 43 40 41 39 38 35 33 31 29 28 27
54 54 53 51 48 47 46 44 43 41 40 39 36 36 35 34 31 29 27 26 25 24
51 50 48 46 45 43 41 38 36 35 35 35 34 33 32 31 29 25 24 22 20 22

GFSNIL_sfc_30mbdewp_072.txt.gz
Dewpoint
53 54 53 53 52 53 52 52 53 54 54 53 53 53 54 54 53 53 54 54 54 53
52 53 53 53 52 52 52 52 53 53 54 54 52 53 54 53 53 53 54 54 54 54
52 52 52 52 53 52 52 51 52 52 53 52 51 51 51 51 51 51 52 53 54 54
51 51 52 53 53 53 53 52 51 51 52 50 49 49 50 50 51 50 51 53 55 55
52 51 51 52 53 54 53 53 52 51 50 49 49 51 51 51 51 51 52 53 56 56
52 52 52 52 52 52 52 52 52 51 51 50 51 51 51 52 52 52 55 56 55 54
52 52 52 51 51 51 50 50 50 51 51 52 52 52 52 54 54 54 53 54 55 54
52 52 51 51 51 51 51 51 51 51 52 53 54 53 53 53 53 53 54 53 52 52
52 52 52 51 51 51 52 51 51 51 51 51 53 53 52 54 55 53 51 49 47 46
51 51 52 52 51 51 51 51 51 51 51 52 53 54 53 53 54 51 48 45 42 40
50 51 51 51 51 51 51 51 52 53 53 55 56 52 50 48 49 45 43 40 38 35
50 51 51 51 52 52 53 54 54 54 54 53 48 45 43 43 39 36 34 34 33 32
50 51 52 53 54 52 53 50 47 44 44 43 41 40 39 38 34 31 30 30 30 30
52 53 54 51 50 47 44 41 39 37 36 36 36 35 35 34 32 29 27 26 27 28

GFSNIL_sfc_30mbdewp_075.txt.gz
Dewpoint
55 54 54 54 53 54 54 54 55 55 53 52 52 53 54 53 54 53 54 53 54 51
55 55 54 54 55 54 53 54 54 54 53 53 53 53 54 54 53 53 53 54 54 53
54 54 55 55 55 55 55 55 55 55 54 53 52 53 53 53 52 53 54 54 55 55
53 53 55 55 55 55 55 55 55 55 54 53 52 53 53 52 53 52 53 53 53 53
53 52 53 54 55 56 55 55 54 54 54 53 52 53 53 53 52 52 51 52 52 52
54 54 53 54 55 54 55 55 54 53 53 53 53 53 53 52 52 52 51 52 52 52
54 54 54 54 54 54 54 54 54 54 53 53 52 52 51 51 51 52 52 52 53 53
54 54 53 53 53 53 54 54 54 54 54 54 54 52 52 52 52 52 52 53 55 55
53 53 53 54 54 53 53 53 53 53 53 53 53 52 51 52 52 53 53 53 53 53
53 53 54 53 53 53 53 53 53 52 52 52 53 51 51 51 53 52 53 54 53 49
52 53 53 53 53 53 53 53 54 54 54 53 53 51 51 50 52 53 54 52 48 43
51 51 52 52 53 54 54 54 54 54 54 53 53 50 51 50 48 43 39 38 38 37
50 50 51 52 53 54 54 54 53 49 49 48 47 45 46 44 39 35 33 32 32 32
50 51 51 52 53 54 52 47 44 41 38 38 38 37 38 37 35 31 29 29 28 29

GFSNIL_sfc_30mbdewp_081.txt.gz
Dewpoint
57 56 55 55 55 54 54 53 52 54 55 56 56 56 56 56 56 55 54 53 53 52
56 56 55 55 55 55 55 54 54 52 55 55 55 55 55 54 54 55 54 53 52 52
56 56 56 56 55 55 54 53 54 53 53 54 54 53 53 53 52 53 53 53 53 52
56 57 57 56 56 56 56 54 52 53 53 53 54 53 52 51 50 51 51 52 53 53
54 54 55 56 56 56 56 56 54 53 51 51 53 53 52 51 50 49 50 51 52 53
54 54 54 55 55 55 56 56 55 55 53 51 51 52 52 51 50 50 50 50 51 51
55 55 55 55 55 55 55 55 55 55 54 54 53 52 51 51 51 50 50 50 51 51
55 55 56 55 55 56 56 56 55 55 55 54 54 54 53 52 52 51 50 50 51 52
53 54 54 55 55 55 56 56 56 56 55 55 54 54 53 53 52 52 51 50 50 51
53 53 54 55 55 54 54 55 56 56 55 55 55 53 52 51 53 52 52 51 51 51
55 54 53 53 54 55 55 54 54 55 55 55 55 53 51 50 52 53 53 52 52 52
49 49 54 53 53 54 55 54 54 54 54 54 55 53 52 49 50 51 52 48 48 51
44 44 46 51 55 54 54 54 54 54 54 54 54 53 51 50 52 49 43 38 38 40
38 39 41 44 51 55 55 54 54 51 44 43 44 45 48 47 47 45 39 36 33 33

GFSNIL_sfc_30mbdewp_084.txt.gz
Dewpoint
56 55 55 56 55 53 52 53 53 54 54 55 54 55 54 54 54 55 54 52 51 51
56 56 55 55 55 55 53 52 52 53 55 55 56 55 56 55 55 55 55 54 53 52
57 56 56 55 55 55 54 53 52 52 54 55 55 55 55 55 55 55 55 54 54 53
55 56 56 55 55 55 55 54 53 53 52 53 54 54 54 54 54 54 54 54 53 52
55 55 56 56 56 56 55 55 54 53 53 52 52 54 53 53 52 52 52 53 53 53
56 56 56 56 56 56 56 56 55 53 53 53 52 52 53 52 52 51 50 50 51 51
55 55 55 55 56 56 56 56 56 55 53 52 52 52 52 52 51 50 50 50 50 50
55 55 55 54 54 55 55 56 55 55 55 54 53 51 51 52 52 51 50 50 50 50
55 55 55 55 55 55 55 54 55 55 55 55 54 53 50 51 51 51 51 50 50 50
51 54 55 56 56 55 55 55 55 55 55 55 55 53 52 51 52 52 52 51 51 50
46 47 48 50 55 55 55 55 55 56 55 55 55 54 52 51 52 53 53 53 52 51
41 43 44 45 46 50 55 55 55 55 55 56 56 54 52 51 52 53 53 53 53 52
36 37 39 40 42 45 47 55 55 55 55 55 55 55 52 51 53 52 52 53 47 46
31 31 33 35 37 41 42 44 54 54 45 43 40 42 43 47 52 52 50 46 39 36

GFSNIL_sfc_30mbdewp_087.txt.gz
Dewpoint
56 56 55 55 54 54 54 54 55 54 54 54 54 56 55 54 54 54 52 50 49 49
56 56 55 56 55 53 53 53 54 54 54 54 54 54 55 54 53 53 53 52 51 49
56 56 56 56 56 55 53 52 53 53 54 55 55 54 54 54 54 54 54 53 52 52
56 56 56 55 55 55 55 54 52 53 53 54 54 55 54 54 54 54 53 53 53 53
56 56 56 55 55 56 55 55 54 52 52 52 53 54 54 54 54 54 54 54 53 53
55 56 55 56 56 56 56 55 55 54 53 52 52 53 53 53 53 53 53 53 53 53
55 55 54 55 55 56 56 55 55 55 54 53 53 51 51 52 52 52 52 52 52 52
56 56 56 56 56 56 56 56 55 55 55 54 53 53 52 51 51 51 51 51 51 51
55 55 55 55 56 55 56 56 55 55 55 55 53 52 51 52 52 52 51 51 50 50
45 46 47 50 55 55 54 55 55 55 55 55 55 53 51 49 51 52 52 52 52 51
39 41 43 45 45 46 49 55 55 55 55 55 55 54 52 50 50 51 52 52 51 51
33 36 37 38 39 41 43 46 48 55 55 55 55 54 53 51 52 52 52 52 53 52
29 31 32 33 35 36 39 41 44 46 44 40 39 36 37 45 53 52 52 53 53 52
28 29 29 30 31 33 35 38 37 35 32 31 31 32 33 36 41 51 52 51 50 37

GFSNIL_sfc_30mbdewp_090.txt.gz
Dewpoint
56 55 55 55 54 54 55 56 56 57 56 54 54 52 54 52 52 51 50 49 49 49
55 55 54 54 54 54 55 55 55 54 55 55 55 55 54 52 53 54 52 51 50 49
54 56 55 55 54 54 54 54 54 54 54 54 54 54 55 54 54 54 54 54 52 52
55 55 56 55 55 54 53 53 53 54 54 54 54 54 54 54 54 54 53 53 53 52
54 55 56 55 56 56 55 53 52 53 53 53 54 54 54 53 53 53 53 53 53 52
54 56 56 55 55 56 56 55 54 53 52 52 53 53 54 54 54 53 53 53 53 52
55 55 55 55 55 56 56 55 55 55 54 53 53 52 52 53 53 53 53 54 53 53
55 55 55 55 55 55 55 55 55 55 55 54 53 53 52 52 52 52 52 52 53 53
47 53 54 55 55 55 55 55 55 55 55 54 54 53 52 52 51 51 51 51 51 52
42 43 44 45 46 47 50 55 56 56 55 55 55 54 52 50 52 52 51 51 51 51
36 37 38 39 40 41 43 45 47 49 53 55 55 47 50 51 51 52 52 52 52 52
31 32 33 34 35 36 39 41 43 42 38 37 38 34 35 40 49 52 52 53 52 52
29 30 30 31 31 33 36 38 38 34 32 31 32 32 34 35 41 47 51 52 52 48
28 29 29 29 30 31 33 33 32 31 29 28 29 29 31 33 37 39 36 32 31 31

GFSNIL_sfc_30mbdewp_093.txt.gz
Dewpoint
55 56 55 56 56 56 56 56 57 56 55 53 51 50 51 52 51 51 52 52 51 51
56 56 55 56 56 55 57 57 57 57 55 53 51 50 49 51 52 52 53 52 52 51
55 56 55 55 55 55 55 56 56 56 56 56 53 49 48 50 48 50 52 52 51 50
54 55 55 55 55 55 55 55 56 56 56 55 55 54 54 53 50 53 52 53 52 51
54 55 56 56 56 56 55 55 55 56 55 55 55 55 55 55 54 53 51 51 54 53
54 55 54 56 56 56 55 55 54 54 54 54 54 54 55 54 54 54 54 54 53 53
54 54 56 56 55 56 56 56 55 54 54 54 54 54 54 54 54 54 54 54 54 54
55 56 56 56 55 55 56 55 55 55 55 54 54 53 53 53 53 53 54 54 54 54
47 47 48 49 54 55 55 55 55 55 55 55 55 53 52 53 53 53 53 53 54 54
40 41 41 43 44 44 46 48 50 51 53 55 48 36 41 48 52 53 52 52 52 52
35 36 37 38 38 39 42 44 44 40 38 41 34 34 34 36 45 51 53 53 52 52
31 32 33 34 35 37 40 39 36 34 33 34 32 32 33 34 41 47 50 52 45 37
30 30 31 32 33 35 35 34 32 30 30 30 30 31 32 34 39 41 37 33 31 31
28 28 30 30 31 32 32 31 30 28 28 28 29 29 29 30 32 32 29 28 28 28

GFSNIL_sfc_30mbdewp_096.txt.gz
Dewpoint
55 54 54 55 57 57 57 57 57 56 56 55 55 55 55 54 54 54 55 52 53 52
55 56 54 55 55 56 57 58 57 56 56 55 54 53 52 51 53 52 52 53 53 52
55 56 55 56 55 55 57 58 57 57 55 54 54 54 53 50 50 50 52 51 51 52
55 55 56 55 55 55 56 57 57 57 56 54 53 52 51 50 50 51 50 50 52 52
55 55 55 55 56 55 55 55 57 57 56 55 54 52 50 49 49 49 46 48 51 51
53 54 55 55 56 56 56 56 56 56 56 56 55 54 53 52 51 50 50 51 49 49
53 54 55 56 55 56 56 55 55 56 56 56 56 56 56 55 55 55 54 54 53 52
54 54 55 55 54 55 56 56 55 55 55 55 55 55 55 55 55 55 54 55 55 55
45 46 47 48 49 53 53 55 56 55 55 55 44 36 42 49 55 54 54 54 54 54
38 40 41 42 43 44 46 47 44 44 41 37 35 34 35 38 48 53 54 54 54 54
35 36 38 38 40 42 42 39 37 37 38 35 32 33 33 35 43 47 50 48 41 43
34 34 36 36 37 38 37 34 33 32 33 32 31 31 32 38 42 40 35 33 31 33
31 32 32 34 35 35 33 32 30 30 30 30 30 29 30 37 39 34 32 29 28 29
28 30 31 31 32 32 32 32 31 30 30 29 29 28 28 30 32 31 29 27 27 27

GFSNIL_sfc_30mbdewp_099.txt.gz
Dewpoint
57 55 53 55 56 58 58 58 57 57 56 57 57 58 57 56 56 56 56 55 56 55
57 54 52 55 57 57 58 58 58 57 56 56 56 56 56 55 55 56 56 57 56 54
56 55 54 56 57 58 58 58 57 57 56 55 56 56 56 55 55 55 55 55 54 53
56 55 55 56 56 56 57 57 57 57 56 55 54 54 53 54 52 53 52 52 52 51
56 55 56 56 56 56 57 57 58 57 56 55 54 54 53 53 51 50 50 50 51 49
55 54 55 56 56 57 56 56 57 57 56 55 54 54 53 53 52 51 51 51 51 50
55 55 56 55 56 56 56 56 55 57 56 56 56 54 53 52 52 52 52 53 52 50
55 55 55 55 56 55 56 56 56 56 57 56 56 48 50 54 54 54 53 54 54 53
45 45 46 49 50 55 55 54 53 50 53 43 37 35 37 44 56 56 55 55 55 55
40 41 42 44 44 43 42 42 42 39 37 35 34 33 35 37 48 54 54 49 50 52
37 37 39 40 39 38 37 36 36 36 34 33 31 33 35 39 45 41 36 35 36 37
35 35 37 36 36 35 34 33 32 33 33 31 30 32 34 43 38 34 32 31 31 31
33 33 34 35 35 34 33 32 32 31 31 31 29 30 31 38 35 32 29 28 28 28
32 32 32 33 34 35 34 33 32 31 31 29 29 28 29 31 32 30 28 28 27 28

GFSNIL_sfc_30mbdewp_102.txt.gz
Dewpoint
60 59 57 56 57 58 57 57 58 58 58 58 59 59 59 60 59 59 58 57 55 54
60 59 56 56 59 58 58 58 58 58 57 58 58 58 58 57 57 57 57 56 56 55
59 58 56 57 58 59 58 57 57 57 57 57 57 57 57 57 57 57 57 57 56 56
59 56 57 57 58 58 59 58 58 56 56 56 56 56 56 56 56 56 56 56 56 55
58 56 55 58 58 59 58 58 57 57 56 55 55 56 55 55 55 55 55 55 54 54
57 56 55 57 57 58 58 57 57 56 56 55 54 54 54 54 53 53 53 53 53 52
56 56 56 57 57 57 57 57 57 57 56 55 55 54 54 54 54 52 52 52 52 52
53 56 56 56 57 57 56 56 57 57 56 55 52 44 51 53 53 53 53 53 53 53
43 45 47 49 52 52 50 49 47 46 43 39 36 35 38 46 53 53 53 54 54 54
38 39 41 40 41 41 42 41 39 37 36 34 34 35 37 41 48 46 44 43 45 45
35 36 36 36 35 35 36 36 34 33 33 32 33 35 40 42 39 35 34 34 35 35
34 34 34 34 33 34 33 32 32 32 31 31 31 34 38 35 33 31 30 31 31 31
33 33 32 32 32 33 32 32 31 30 30 30 30 32 36 34 32 30 29 29 29 30
32 32 32 32 32 32 32 32 31 29 29 29 29 30 32 33 31 30 28 27 27 29

GFSNIL_sfc_30mbdewp_105.txt.gz
Dewpoint
60 59 59 58 59 58 58 57 57 57 57 58 59 59 59 59 59 59 58 57 57 56
61 60 58 57 59 59 58 57 57 57 57 58 58 59 59 59 58 58 58 58 57 57
61 60 58 57 59 58 57 57 57 57 57 58 58 58 58 58 58 58 58 58 57 57
59 60 57 58 58 58 57 57 57 57 56 57 57 57 57 57 57 57 57 57 57 56
59 58 57 58 58 58 57 57 57 56 56 56 56 56 56 56 56 56 56 56 56 56
57 57 57 58 58 59 58 57 57 56 56 56 56 56 56 56 56 56 56 56 55 55
57 57 58 58 58 59 58 57 57 56 56 55 55 55 55 55 55 55 55 55 55 55
44 50 52 54 58 58 58 57 57 56 56 55 54 51 54 54 54 53 53 54 53 54
39 40 42 43 45 47 46 46 45 43 43 41 38 37 41 52 54 54 53 53 53 53
37 36 37 37 37 37 37 37 36 36 35 35 36 37 39 44 48 47 44 44 46 43
35 35 35 35 34 33 33 33 33 32 33 35 36 37 38 37 35 34 33 33 34 35
32 33 34 33 33 33 31 30 30 31 31 31 33 35 35 34 32 30 30 31 32 32
31 31 31 32 32 32 31 30 29 29 29 30 31 33 34 33 31 30 29 30 30 31
30 29 31 31 32 32 31 30 29 28 28 29 30 31 32 32 31 29 28 28 28 30

GFSNIL_sfc_30mbdewp_108.txt.gz
Dewpoint
61 60 59 60 59 59 59 59 59 59 59 59 59 59 60 59 59 59 59 58 57 56
61 60 60 59 59 59 59 58 58 58 57 57 57 58 59 58 58 59 58 58 57 56
61 60 60 59 59 59 58 58 57 57 57 57 57 57 58 58 58 58 58 58 57 56
60 60 59 58 59 58 58 57 57 57 57 57 57 57 57 57 58 58 58 58 57 56
58 59 58 58 58 58 57 57 56 56 56 56 56 57 57 56 57 57 57 57 57 56
47 57 58 58 58 57 57 57 57 57 56 55 55 56 56 57 56 56 57 57 56 56
41 45 54 58 58 57 57 56 57 56 56 56 56 56 56 56 56 56 56 56 56 56
38 40 42 48 58 58 57 57 57 56 56 55 55 50 54 56 55 55 55 56 56 56
36 36 38 39 42 44 45 45 45 44 43 43 41 40 44 49 55 54 54 54 54 55
34 34 35 35 35 36 37 38 37 37 38 37 37 40 42 46 49 46 45 46 49 45
33 32 33 32 32 32 32 32 33 33 34 34 34 35 36 37 37 35 34 35 36 37
31 32 31 31 31 31 31 30 30 31 32 32 33 34 34 33 32 31 31 32 33 34
29 29 30 31 31 31 30 30 30 29 30 31 31 33 33 32 31 29 29 30 31 32
27 27 28 29 30 30 29 29 28 28 28 29 30 31 32 31 30 29 28 28 29 30

GFSNIL_sfc_30mbdewp_111.txt.gz
Dewpoint
49 61 60 59 59 59 59 59 60 61 61 61 61 60 60 59 59 59 59 59 59 58
49 58 61 60 60 59 59 59 60 60 60 60 60 60 59 59 59 59 59 59 59 58
51 53 61 60 60 59 59 59 59 59 59 58 58 58 58 58 58 58 58 58 57 57
55 55 61 60 59 59 59 58 58 58 57 57 57 57 57 56 57 57 58 58 57 56
44 48 59 59 59 59 59 58 58 57 57 57 56 57 56 56 57 57 57 57 57 56
41 42 45 51 58 58 58 57 57 57 56 56 56 56 56 56 56 57 57 57 57 56
37 39 40 41 45 58 58 57 57 56 56 56 56 56 56 56 56 56 57 57 57 57
36 36 36 36 37 40 56 57 57 56 56 56 56 55 56 56 56 56 56 56 56 57
34 34 34 34 34 34 35 39 46 49 49 48 43 42 47 52 55 55 55 55 55 56
32 33 33 33 33 33 33 33 34 35 38 37 37 39 44 47 51 51 49 49 53 49
30 31 31 31 31 32 32 32 31 32 33 34 34 35 37 40 38 36 35 36 38 41
28 29 29 30 30 30 30 31 31 31 31 31 32 34 34 34 33 32 31 32 34 35
26 27 28 28 29 29 29 29 30 29 30 31 31 32 33 32 31 30 30 30 31 33
24 25 26 27 28 28 28 28 28 28 28 29 30 31 32 32 31 30 28 29 29 30

GFSNIL_sfc_30mbdewp_114.txt.gz
Dewpoint
49 51 61 60 60 60 61 61 61 62 62 61 61 61 61 61 60 60 60 59 59 58
48 51 51 60 60 60 60 60 60 61 61 60 60 61 61 60 59 59 59 59 59 59
47 51 51 54 60 60 60 59 59 60 60 60 60 60 60 59 59 59 59 59 58 58
43 45 52 53 61 60 59 59 59 59 59 59 58 59 58 58 58 57 57 57 57 57
40 42 43 46 48 60 59 59 59 59 58 58 58 57 57 56 56 56 55 55 57 57
37 38 39 40 42 46 58 59 58 58 57 57 57 56 56 56 56 56 56 57 57 57
35 36 37 38 39 40 43 51 57 57 57 57 57 56 56 56 56 56 56 57 57 57
34 34 35 36 36 37 37 37 40 51 57 57 56 55 56 56 55 55 55 56 57 57
32 32 33 33 34 35 35 35 35 35 37 38 39 37 43 54 55 55 55 55 55 56
30 30 31 31 32 32 33 34 34 34 34 33 34 35 37 42 53 53 50 51 53 52
28 29 29 29 30 30 31 31 32 32 33 33 32 33 34 35 37 37 36 37 40 44
26 27 27 28 28 29 29 29 29 30 30 31 31 33 33 32 32 31 31 32 35 37
25 25 26 26 27 28 29 28 28 28 29 29 29 31 32 32 32 30 30 30 31 33
23 24 24 25 26 27 27 27 27 27 28 28 29 29 30 30 29 29 28 28 29 30

GFSNIL_sfc_30mbdewp_117.txt.gz
Dewpoint
50 51 53 61 62 62 61 62 62 63 63 63 62 61 62 62 61 61 61 60 60 59
48 49 52 53 60 62 62 62 62 62 62 62 62 61 61 61 61 61 61 60 60 60
45 46 49 54 53 60 61 61 62 61 61 61 61 61 61 60 61 60 60 60 59 59
41 42 44 47 51 52 60 60 60 61 61 61 60 60 60 60 60 59 59 59 59 58
38 39 40 41 43 46 50 60 60 59 60 60 60 60 59 59 59 58 58 58 58 57
35 36 37 38 40 42 44 47 57 59 59 59 59 58 58 58 58 58 58 57 56 55
33 34 35 36 37 38 40 40 42 44 55 58 58 57 57 58 57 57 57 56 56 55
32 33 33 34 35 36 36 37 38 38 38 39 38 37 39 49 56 56 56 56 56 57
30 30 31 32 32 33 33 34 35 35 35 35 35 35 37 41 50 56 55 55 56 56
29 29 30 30 30 31 31 31 31 32 33 33 33 34 35 38 38 41 47 50 52 55
27 28 29 29 29 30 30 30 29 30 30 30 31 33 34 34 34 33 33 34 36 40
26 26 27 28 29 29 29 29 28 28 28 29 29 32 33 34 33 32 31 31 32 34
25 25 25 26 27 29 29 29 29 29 28 28 29 30 31 31 32 31 31 31 30 31
25 25 26 26 27 27 28 28 28 28 28 28 28 29 28 28 27 27 26 26 27 29

GFSNIL_sfc_30mbdewp_120.txt.gz
Dewpoint
52 53 55 57 59 62 63 63 63 64 64 63 64 63 64 63 63 62 62 61 61 60
47 49 51 53 55 56 63 63 63 64 63 63 64 63 63 63 62 62 62 62 62 61
44 45 47 50 53 55 55 61 63 62 63 63 63 63 63 62 62 62 61 61 61 61
40 42 43 44 46 48 52 53 62 62 62 62 62 61 61 61 61 61 61 61 61 60
37 38 39 40 41 44 47 49 55 61 61 61 61 61 60 60 60 60 60 60 60 60
35 35 36 37 38 40 41 43 45 46 50 58 60 60 60 60 59 59 60 60 59 59
33 34 35 35 36 37 38 39 40 40 40 40 40 40 42 48 58 59 59 59 59 59
32 33 33 34 34 34 34 35 36 36 36 36 36 35 36 40 46 55 58 58 58 58
32 31 31 32 32 32 32 33 33 33 33 33 33 34 35 38 46 44 51 55 57 57
29 30 31 31 31 31 31 31 31 31 32 32 31 33 34 35 37 36 36 36 39 42
28 28 29 30 31 31 31 31 30 30 30 30 30 31 32 34 35 33 33 33 33 35
28 28 28 29 30 31 30 31 30 30 30 30 29 30 30 31 32 32 31 31 32 33
27 27 27 28 29 30 30 30 30 30 30 29 29 29 28 29 28 27 26 28 29 30
26 27 28 28 29 29 29 29 29 29 29 28 29 29 28 27 29 29 27 25 26 27

GFSNIL_sfc_30mbdewp_123.txt.gz
Dewpoint
52 57 57 57 57 62 62 63 63 63 64 64 64 64 63 63 62 62 62 61 62 61
49 52 54 55 56 57 58 60 64 64 64 64 64 64 63 63 63 63 63 63 62 61
45 46 47 48 49 50 53 55 57 64 64 64 64 64 64 63 63 64 63 63 62 62
41 42 43 43 44 46 49 50 52 58 63 63 63 63 63 62 62 62 62 62 62 61
37 38 38 39 40 42 44 45 45 48 49 55 60 62 61 61 61 61 61 61 58 60
35 35 35 36 36 37 38 39 40 40 41 40 40 41 43 46 57 60 60 61 61 60
34 34 35 35 34 34 35 35 35 36 36 37 36 36 37 40 44 49 55 60 60 60
34 33 33 33 33 33 33 33 34 34 33 34 33 34 35 38 44 47 47 50 58 59
32 33 33 33 32 32 32 32 32 32 32 32 31 33 35 37 38 37 37 38 41 44
31 31 31 32 32 32 31 31 31 31 31 30 30 31 32 34 34 33 32 32 33 36
29 29 30 30 31 31 31 31 30 30 30 30 29 30 31 31 31 30 30 30 30 31
28 28 28 29 30 31 30 31 30 30 29 29 29 29 29 31 29 28 28 28 29 29
29 28 29 30 30 30 30 30 31 30 30 28 28 28 28 29 30 30 29 28 28 29
28 29 29 30 30 30 31 30 30 30 30 30 29 28 27 27 28 28 28 28 27 28